Regional Weather Roundup
Issued by NWS

Home | Current Version | Previous Version | Graphics & Text | Print | Product List | Glossary On
Versions: 1 2 3 4 5 6 7 8 9 10 11 12 13 14 15 16 17 18 19 20 21 22 23 24 25 26 27 28 29 30 31 32 33 34 35 36 37 38 39 40 41 42 43 44 45 46 47 48 49 50
306
ASUS43 KOAX 220102
RWRNE

WEATHER ROUNDUP FOR NEBRASKA
NATIONAL WEATHER SERVICE OMAHA NE
800 PM CDT THU MAY 21 2015

NOTES: SATELLITE DATA IS BEING USED TO AUGMENT CLOUD COVER ABOVE
       12000 FEET.
       "FAIR" INDICATES FEW OR NO CLOUDS BELOW 12,000 FEET WITH NO
       SIGNIFICANT WEATHER AND/OR OBSTRUCTIONS TO VISIBILITY.

  * THESE STATIONS DO NOT REPORT WEATHER SUCH AS RAIN...SNOW OR FOG.

NEZ001>004-019>022-054>056-220200-
NEBRASKA PANHANDLE

CITY           SKY/WX    TMP DP  RH WIND       PRES   REMARKS
SCOTTSBLUFF    CLOUDY    55  44  66 SE14      30.11F
ALLIANCE       CLOUDY    55  44  66 SE10      30.13F
CHADRON        CLOUDY    57  45  64 S8        30.12F
KIMBALL          N/A    N/A N/A N/A MISG        N/A
SIDNEY         CLOUDY    54  43  66 SE14      30.15S
$$

NEZ057>060-069>072-079>082-220200-
SOUTHWEST NEBRASKA

CITY           SKY/WX    TMP DP  RH WIND       PRES   REMARKS
NORTH PLATTE   MOCLDY    59  42  53 S7        30.17S
IMPERIAL       CLOUDY    57  43  59 SE10      30.17S
LEXINGTON      PTCLDY    59  41  51 S7        30.18S
MCCOOK         MOCLDY    60  41  49 SE8       30.17S
$$

NEZ005>010-023>029-035>040-094-220200-
NORTH CENTRAL NEBRASKA

CITY           SKY/WX    TMP DP  RH WIND       PRES   REMARKS
VALENTINE      CLEAR     64  28  25 SE9       30.15F
AINSWORTH      CLEAR     62  33  32 S6        30.16F
BROKEN BOW     CLEAR     62  36  37 S9        30.17F
O`NEILL        CLEAR     66  39  37 CALM      30.17S
ORD            CLEAR     63  32  31 S7        30.16F
$$

NEZ041-046>049-061>064-073>077-083>087-220200-
SOUTH CENTRAL NEBRASKA

CITY           SKY/WX    TMP DP  RH WIND       PRES   REMARKS
GRAND ISLAND   CLEAR     63  38  39 SW5       30.19S
AURORA         CLEAR     64  35  34 CALM      30.18F
HASTINGS       CLEAR     62  35  36 S5        30.18F
KEARNEY *      CLEAR     63  37  39 S7        30.18S
$$

NEZ011>018-030>034-042>045-220200-
NORTHEAST NEBRASKA

CITY           SKY/WX    TMP DP  RH WIND       PRES   REMARKS
NORFOLK        CLEAR     68  37  32 N3        30.15F
ALBION         CLEAR     65  37  35 SW5       30.17F
BLAIR          CLEAR     69  37  31 W6        30.15S
COLUMBUS *     CLEAR     66  36  32 SW7       30.20S
FREMONT        CLEAR     68  38  32 W5        30.16S
TEKAMAH        CLEAR     71  39  31 W9        30.13S
$$

NEZ050>053-065>068-078-088>093-220200-
SOUTHEAST NEBRASKA

CITY           SKY/WX    TMP DP  RH WIND       PRES   REMARKS
LINCOLN        CLEAR     67  38  34 SW6       30.18S
OMAHA EPPLEY   PTCLDY    70  39  32 W6        30.14S
BEATRICE       CLEAR     65  38  36 CALM      30.18S
FALLS CITY     CLEAR     65  43  44 W6        30.17S
NEBRASKA CITY  CLEAR     64  36  36 W7        30.17S
PLATTSMOUTH    CLEAR     67  34  29 W6        30.16S
$$

NEZ044-045-051>053-067-220200-
OMAHA AREA

CITY           SKY/WX    TMP DP  RH WIND       PRES   REMARKS
OMAHA EPPLEY   PTCLDY    70  39  32 W6        30.14S
BLAIR          CLEAR     69  37  31 W6        30.15S
FREMONT        CLEAR     68  38  32 W5        30.16S
OFFUTT AFB     CLEAR     68  38  32 W7        30.14S
PLATTSMOUTH    CLEAR     67  34  29 W6        30.16S
WAHOO          FAIR      68  38  33 W6        30.16S
$$



USA.gov is the U.S. government's official web portal to all federal, state and local government web resources and services.